Voltar ao catálogo

DELTA 2 R/B(1)

AtivoUNKNOWN
NORAD 25619·ROCKET BODY·🇺🇸 United States

Lançado Feb 7, 1999 de Cape Canaveral Space Force Station

Loading…

Próximas Passagens (próximas 24 horas)

TLE

AtualizadoSource: Space-Track

Época: Sep 14, 2026, 19:00 UTC

1 25619U 99003B   26257.79189882  .00027082 -60200-5  68465-3 0  9993
2 25619  22.4413   3.4259 1726196  23.4516 343.5977 12.02600987 34131

Acompanhe DELTA 2 R/B(1) em tempo real com AllMySat

Download on the App Store